Location: P�rn�nmaa
(61.1833°N, 23.0000°E)
Time: 18:26:17
(UTC+00:00)

Genesis I - Pass Details

Date: 08 December 2019
Orbit: 494 x 530 km, 64.5° (Epoch: 17 January)

Event Time Altitude Azimuth Distance (km) Brightness Sun altitude
Rises 14:07:15 0° 288° (WNW) 2,667 7.3 -5.5°
Reaches altitude 10° 14:09:29 10° 293° (WNW) 1,772 6.3 -5.7°
Maximum altitude 14:13:25 58° 13° (NNE) 613 3.3 -6.1°
Drops below altitude 10° 14:17:17 10° 94° (E) 1,748 5.4 -6.4°
Sets 14:19:28 0° 98° (E) 2,628 6.4 -6.6°
Enters shadow 14:19:32 - 98° (E) 2,652 6.4 -6.6°
